Tracking 20623 objects as of 2-Apr-2020
HD Live streaming from Space Station
objects crossing your sky now

COSMOS 825


10-day predictions
COSMOS 825 is classified as:


NORAD ID: 8889
Int'l Code: 1976-054A
Perigee: 1,401.9 km
Apogee: 1,493.9 km
Inclination: 74.0 °
Period: 114.7 minutes
Semi major axis: 7818 km
RCS: 0.6977 m2 (medium)
Launch date: June 15, 1976
Source: Commonwealth of Independent States (former USSR) (CIS)
Launch site: PLESETSK MISSILE AND SPACE COMPLEX (PKMTR)
aabbcc
Your satellite tracking list
Your tracking list is empty




NASA's NSSDC Master Catalog

Two Line Element Set (TLE):
1  8889U 76054A   20092.27526250 -.00000014 +00000-0 +12802-4 0  9990
2  8889 074.0019 194.1729 0058862 340.3607 035.3672 12.55699106007491
Source of the keplerian elements: AFSPC